Date,TemperatureHighF,TemperatureAvgF,TemperatureLowF,DewpointHighF,DewpointAvgF,DewpointLowF,HumidityHigh,HumidityAvg,HumidityLow,PressureMaxIn,PressureMinIn,WindSpeedMaxMPH,WindSpeedAvgMPH,GustSpeedMaxMPH,PrecipitationSumIn
2013-2-1,28.4,26.2,23.4,21.0,16.8,12.0,85,68,55,30.18,30.05,29,9,42,0.00
2013-2-2,35.5,29.8,25.1,17.0,10.9,6.0,70,47,31,30.38,30.16,21,6,44,0.00
2013-2-3,41.7,33.5,25.8,9.0,0.2,-13.0,46,26,10,30.28,29.90,14,2,24,0.00
2013-2-4,35.9,31.3,27.2,12.0,5.4,-1.0,46,34,26,29.98,29.84,13,5,34,0.00
2013-2-5,44.6,34.5,28.0,23.0,17.5,12.0,69,51,39,30.06,29.84,15,4,31,0.00
2013-2-6,38.9,32.1,24.6,25.0,19.1,13.0,85,60,43,30.04,29.78,10,2,17,0.00
2013-2-7,35.6,24.6,11.9,15.0,3.7,-8.0,81,44,16,30.18,30.03,13,2,19,0.00
2013-2-8,38.6,24.0,10.8,16.0,3.0,-3.0,76,44,18,30.14,29.83,6,1,11,0.00
2013-2-9,25.9,21.4,14.6,21.0,15.5,8.0,91,78,54,29.82,29.54,6,1,12,0.00
2013-2-10,20.3,16.4,10.0,14.0,8.9,4.0,88,73,51,30.15,29.62,11,2,25,0.00
2013-2-11,17.5,8.7,-3.3,13.0,4.6,-7.0,89,83,67,30.32,30.15,6,1,8,0.00
2013-2-12,24.1,16.5,5.8,5.0,0.4,-8.0,79,50,32,30.34,30.23,18,3,20,0.00
2013-2-13,27.0,22.7,17.7,14.0,10.0,6.0,64,59,52,30.27,30.04,25,6,37,0.00
2013-2-14,28.3,18.9,11.3,16.0,11.5,8.0,91,74,46,30.33,30.03,12,3,26,0.00
2013-2-15,23.2,18.5,9.4,13.0,9.9,7.0,91,70,50,30.52,30.32,23,4,45,0.00
2013-2-16,35.3,28.9,21.9,15.0,11.0,6.0,68,48,34,30.43,30.07,25,8,38,0.00
2013-2-17,41.7,32.3,19.9,16.0,4.2,-5.0,72,33,17,30.06,29.57,31,4,31,0.00
2013-2-18,22.0,17.4,4.6,11.0,3.7,-4.0,72,56,34,30.20,29.66,19,3,29,0.00
2013-2-19,37.4,22.6,4.7,9.0,-1.1,-18.0,70,40,9,30.21,29.86,6,1,10,0.00
2013-2-20,31.6,20.2,14.1,16.0,10.3,5.0,91,68,35,29.86,29.65,8,1,11,0.00
2013-2-21,19.7,14.6,8.5,15.0,11.4,6.0,91,87,75,30.02,29.71,8,1,12,0.00
2013-2-22,25.1,18.3,14.1,15.0,6.3,0.0,77,60,47,30.06,29.91,17,3,28,0.00
2013-2-23,34.1,23.2,14.6,19.0,10.2,1.0,89,59,46,29.96,29.71,20,5,40,0.00
2013-2-24,18.4,14.8,0.0,16.0,12.3,-3.0,91,89,86,30.24,29.74,7,1,14,0.00
2013-2-25,29.2,17.2,-0.7,17.0,7.8,-4.0,91,68,46,30.32,30.00,8,1,16,0.10
2013-2-26,25.1,18.9,9.1,18.0,13.8,7.0,91,81,53,30.23,29.86,9,1,19,0.00
2013-2-27,21.3,13.8,0.5,7.0,2.1,-6.0,91,62,40,30.48,30.24,9,1,24,0.00
2013-2-28,26.8,19.6,12.9,13.0,6.3,0.0,73,57,41,30.50,30.33,16,5,35,0.00